Back to catalog

ONEWEB-0270

AliveCommunicationsPO
NORAD 48988·PAYLOAD·🇬🇧 United Kingdom

Launched Jul 1, 2021 from Vostochny Cosmodrome

Loading…

Next Passes (next 24 hours)

TLE

FreshSource: CelesTrak SupGP

Epoch: Sep 14, 2026, 17:10 UTC

1 48988C 21060X   26257.71546713  .00003481  00000+0  91179-2 0  2573
2 48988  87.9143 211.0038 0002006  69.9007 325.9065 13.16590679    13

Track ONEWEB-0270 in real time with AllMySat

Download on the App Store